Tracking 29892 objects as of 21-Nov-2024
HD Live streaming from Space Station
objects crossing your sky now

CZ-3C DEB

Track CZ-3C DEB now!


NORAD ID: 40861
Int'l Code: 2012-008AB
Perigee: 617.9 km
Apogee: 35,272.6 km
Inclination: 20.3 °
Period: 628.9 minutes
Semi major axis: 24316 km
RCS: Unknown
Launch date: February 24, 2012
Source: People's Republic of China (PRC)
Launch site: Xichang Space Center, China (XSC)

Note: This is SATELLITE DEBRIS
Your satellite tracking list
Your tracking list is empty




NASA's NSSDC Master Catalog

Two Line Element Set (TLE):
1 40861U 12008AB  24312.88214532  .00000154  00000-0  13806-2 0  9995
2 40861  20.2599 183.7947 7125841 262.8345  18.6454  2.28959523 83021
Source of the keplerian elements: AFSPC